Regional Weather Roundup
Issued by NWS

Home | Current Version | Previous Version | Graphics & Text | Print | Product List | Glossary On
Versions: 1 2 3 4 5 6 7 8 9 10 11 12 13 14 15 16 17 18 19 20 21 22 23 24 25 26 27
000
ASUS45 KBOI 252310
RWRID

IDAHO REGIONAL WEATHER ROUNDUP
NATIONAL WEATHER SERVICE BOISE ID
400 PM MST SAT FEB 25 2017

NOTE: "FAIR" INDICATES FEW OR NO CLOUDS BELOW 12000 FEET
WITH NO SIGNIFICANT WEATHER AND/OR OBSTRUCTIONS TO VISIBILITY

IDZ012-014-260000-
SOUTHWEST IDAHO


CITY           SKY/WX    TMP DP  RH WIND       PRES   REMARKS
BOISE          MOSUNNY   39  16  39 MISG      30.05F
CALDWELL       MOSUNNY   42  16  34 VRB3      30.07F
MOUNTAIN HOME  SUNNY     38  15  39 W12       30.04F WCI  30
$$

IDZ016-017-260000-
SOUTHCENTRAL IDAHO


CITY           SKY/WX    TMP DP  RH WIND       PRES   REMARKS
BURLEY         MIX PCPN  32  14  47 W14G20    30.00F WCI  22
JEROME           N/A    N/A N/A N/A MISG      30.02F
TWIN FALLS     SUNNY     28  13  53 W13       30.02F WCI  17
$$

IDZ019>023-260000-
SOUTHEAST IDAHO


CITY           SKY/WX    TMP DP  RH WIND       PRES   REMARKS
IDAHO FALLS    MOSUNNY   19  12  74 SW17      29.95F WCI   4
POCATELLO      MOSUNNY   24  13  62 W16       30.00F WCI  11
REXBURG        SUNNY     20  10  65 SW15      29.93F WCI   6
$$

IDZ006-010-011-018-031-032-260000-
CENTRAL IDAHO MOUNTAINS


CITY           SKY/WX    TMP DP  RH WIND       PRES   REMARKS
MCCALL         CLOUDY    25  11  55 SW6       29.92F WCI  18
STANLEY          N/A     20   8  60 N7        29.87F WCI  11
SALMON         CLOUDY    32  10  40 W13G22    29.88F WCI  22
CHALLIS        CLOUDY    26  11  52 SE7       29.88F WCI  18
$$

IDZ002-004-006-007-026-260000-
NORTHERN IDAHO


CITY           SKY/WX    TMP DP  RH WIND       PRES   REMARKS
LEWISTON       CLOUDY    42  21  43 CALM      30.03F
LOWELL           N/A     40  22  48 VRB3      30.05F
COEUR D`ALENE  MOSUNNY   32  23  69 SW13      29.97F WCI  22
MULLAN PASS    LGT SNOW  16  12  84 MISG      29.78F FOG
$$




USA.gov is the U.S. government's official web portal to all federal, state and local government web resources and services.